NORTHEAST SUFFOLK  -  Special Weather Statement Special Weather Statement        NORTHERN NASSAU  -  Special Weather Statement Special Weather Statement        NORTHWEST SUFFOLK  -  Special Weather Statement Special Weather Statement        SOUTHEAST SUFFOLK  -  Special Weather Statement Special Weather Statement        SOUTHERN NASSAU  -  Special Weather Statement Special Weather Statement        SOUTHWEST SUFFOLK  -  Special Weather Statement Special Weather Statement      

Active alerts

Northern Nassau
  Details for Northern Nassau Special Weather Statement
Southern Nassau
  Details for Southern Nassau Special Weather Statement
Northwest Suffolk
  Details for Northwest Suffolk Special Weather Statement
Southwest Suffolk
  Details for Southwest Suffolk Special Weather Statement
Northeast Suffolk
  Details for Northeast Suffolk Special Weather Statement
Southeast Suffolk
  Details for Southeast Suffolk Special Weather Statement


WXM80 ListenWXM80 Stop

You find our weather info also at:

UK Metoffice

WeatherCloud

Weather Underground

Northeastern Weather Network

AWEKAS

Citizen Weather Observer Program (CWOP)

HAMweather, WeatherForYou, PWS Weather


Weather Underground History page Text

Daily Summary for July 23, 2016 Units:  English    Metric   Both
« Previous Day
Next Day »
Daily Weekly Monthly Yearly Custom
  High: Low: Average:
Temperature: 98.9 °F 78.0 °F 87.1 °F
Dew Point: 73.1 °F 61.2 °F 67.5 °F
Humidity: 76 % 31 % 55 %
Wind Speed: 7.7 mph 0.0 mph 2.7 mph
Wind Gust: 13.8 mph - -
Wind:- - WSW
Pressure: 29.86 in 29.74 in -
Precipitation: 0.00 in    
Historical Graphs
 
 
Tabular Data for July 23, 2016
Time Temperature Dew Point Pressure Wind Wind Speed Wind Gust Humidity Rainfall Rate (Hourly)
00:04 83.2 °F 72.4 °F 29.77 in SSW 1.2 mph 4.0 mph 70 % 0.00 in
00:09 83.2 °F 72.4 °F 29.76 in SW 0.3 mph 3.5 mph 70 % 0.00 in
00:14 83.0 °F 72.6 °F 29.76 in SW 2.8 mph 4.6 mph 71 % 0.00 in
00:20 82.9 °F 72.5 °F 29.76 in SSW 4.6 mph 8.1 mph 71 % 0.00 in
00:25 82.7 °F 72.7 °F 29.77 in WSW 2.2 mph 4.0 mph 72 % 0.00 in
00:30 82.6 °F 72.7 °F 29.77 in SSW 3.9 mph 5.0 mph 72 % 0.00 in
00:35 82.5 °F 72.6 °F 29.76 in SW 2.9 mph 4.0 mph 72 % 0.00 in
00:40 82.4 °F 72.9 °F 29.76 in SW 3.9 mph 5.8 mph 73 % 0.00 in
00:45 82.3 °F 72.8 °F 29.76 in SW 5.4 mph 10.4 mph 73 % 0.00 in
00:50 82.3 °F 72.8 °F 29.76 in SSW 1.2 mph 3.5 mph 73 % 0.00 in
00:55 82.2 °F 73.1 °F 29.76 in SW 4.4 mph 9.2 mph 74 % 0.00 in
01:00 82.1 °F 73.0 °F 29.76 in WSW 4.3 mph 8.0 mph 74 % 0.00 in
01:05 82.1 °F 73.0 °F 29.76 in SSW 2.6 mph 4.6 mph 74 % 0.00 in
01:10 82.0 °F 72.9 °F 29.76 in WSW 4.6 mph 6.9 mph 74 % 0.00 in
01:15 82.0 °F 72.9 °F 29.76 in WSW 5.0 mph 5.0 mph 74 % 0.00 in
01:21 82.0 °F 72.9 °F 29.76 in WSW 3.0 mph 7.0 mph 74 % 0.00 in
01:26 82.0 °F 72.9 °F 29.76 in SSW 3.1 mph 5.0 mph 74 % 0.00 in
01:31 82.0 °F 72.9 °F 29.76 in SW 5.0 mph 8.0 mph 74 % 0.00 in
01:36 82.0 °F 72.9 °F 29.76 in SW 2.0 mph 7.0 mph 74 % 0.00 in
01:41 81.9 °F 72.8 °F 29.76 in WSW 3.2 mph 5.8 mph 74 % 0.00 in
01:46 81.9 °F 72.8 °F 29.77 in WSW 1.0 mph 9.0 mph 74 % 0.00 in
01:51 81.9 °F 72.8 °F 29.77 in WSW 1.0 mph 5.0 mph 74 % 0.00 in
01:56 81.8 °F 73.1 °F 29.77 in West 1.0 mph 5.0 mph 75 % 0.00 in
02:01 81.7 °F 72.6 °F 29.77 in SW 1.3 mph 5.8 mph 74 % 0.00 in
02:06 81.7 °F 72.6 °F 29.77 in SSW 1.4 mph 3.5 mph 74 % 0.00 in
02:11 81.6 °F 72.5 °F 29.77 in WSW 2.9 mph 4.6 mph 74 % 0.00 in
02:16 81.5 °F 72.4 °F 29.77 in WSW 4.0 mph 6.9 mph 74 % 0.00 in
02:21 81.5 °F 72.4 °F 29.77 in WSW 1.0 mph 3.5 mph 74 % 0.00 in
02:26 81.4 °F 72.3 °F 29.77 in SW 1.5 mph 3.5 mph 74 % 0.00 in
02:31 81.3 °F 72.2 °F 29.77 in SSW 2.6 mph 3.5 mph 74 % 0.00 in
02:36 81.2 °F 72.1 °F 29.77 in SW 3.9 mph 5.8 mph 74 % 0.00 in
02:41 81.0 °F 71.9 °F 29.77 in SW 2.1 mph 4.6 mph 74 % 0.00 in
02:47 80.9 °F 71.8 °F 29.77 in SW 1.6 mph 4.0 mph 74 % 0.00 in
02:52 80.9 °F 71.8 °F 29.77 in SW 2.2 mph 4.6 mph 74 % 0.00 in
02:57 80.7 °F 71.6 °F 29.76 in SSW 3.5 mph 4.6 mph 74 % 0.00 in
03:02 80.6 °F 71.5 °F 29.77 in WSW 1.0 mph 5.0 mph 74 % 0.00 in
03:07 80.5 °F 71.4 °F 29.76 in West 0.2 mph 4.6 mph 74 % 0.00 in
03:12 80.3 °F 71.3 °F 29.77 in SW 1.9 mph 3.5 mph 74 % 0.00 in
03:17 80.2 °F 71.2 °F 29.77 in SSW 3.0 mph 4.6 mph 74 % 0.00 in
03:22 80.1 °F 71.5 °F 29.77 in WSW 1.8 mph 3.5 mph 75 % 0.00 in
03:27 80.0 °F 71.4 °F 29.77 in SW 0.1 mph 2.3 mph 75 % 0.00 in
03:32 79.9 °F 71.3 °F 29.77 in SW 2.1 mph 3.5 mph 75 % 0.00 in
03:37 79.7 °F 71.1 °F 29.77 in WSW 1.9 mph 4.0 mph 75 % 0.00 in
03:42 79.6 °F 71.0 °F 29.77 in SW 1.6 mph 5.8 mph 75 % 0.00 in
03:48 79.5 °F 70.9 °F 29.77 in SW 2.0 mph 4.6 mph 75 % 0.00 in
03:53 79.4 °F 71.2 °F 29.77 in SW 1.7 mph 3.5 mph 76 % 0.00 in
03:58 79.4 °F 71.2 °F 29.77 in WSW 1.2 mph 3.5 mph 76 % 0.00 in
04:03 79.3 °F 70.7 °F 29.78 in West 2.3 mph 3.5 mph 75 % 0.00 in
04:08 79.2 °F 70.6 °F 29.77 in SSW 2.7 mph 3.5 mph 75 % 0.00 in
04:13 79.2 °F 70.6 °F 29.77 in SW 4.5 mph 8.1 mph 75 % 0.00 in
04:18 79.1 °F 70.5 °F 29.77 in West 1.7 mph 6.0 mph 75 % 0.00 in
04:23 79.1 °F 70.5 °F 29.77 in SSW 2.5 mph 3.5 mph 75 % 0.00 in
04:28 79.1 °F 70.1 °F 29.77 in SSW 1.9 mph 4.6 mph 74 % 0.00 in
04:34 79.0 °F 70.0 °F 29.77 in WSW 1.2 mph 2.3 mph 74 % 0.00 in
04:39 79.0 °F 70.0 °F 29.77 in SW 2.7 mph 5.8 mph 74 % 0.00 in
04:44 78.9 °F 70.3 °F 29.77 in SW 2.3 mph 4.6 mph 75 % 0.00 in
04:49 78.7 °F 70.1 °F 29.77 in WSW 1.7 mph 3.5 mph 75 % 0.00 in
04:54 78.6 °F 70.0 °F 29.77 in WSW 1.7 mph 3.5 mph 75 % 0.00 in
04:59 78.5 °F 69.5 °F 29.77 in SW 1.0 mph 3.5 mph 74 % 0.00 in
05:04 78.4 °F 69.4 °F 29.78 in SW 2.4 mph 3.5 mph 74 % 0.00 in
05:09 78.3 °F 69.3 °F 29.78 in WSW 1.5 mph 5.8 mph 74 % 0.00 in
05:14 78.2 °F 69.2 °F 29.78 in SSW 1.2 mph 4.6 mph 74 % 0.00 in
05:19 78.1 °F 69.1 °F 29.78 in SW 1.2 mph 3.5 mph 74 % 0.00 in
05:25 78.1 °F 69.1 °F 29.78 in SW 5.1 mph 10.4 mph 74 % 0.00 in
05:30 78.0 °F 68.6 °F 29.78 in West 4.5 mph 9.2 mph 73 % 0.00 in
05:35 78.0 °F 68.6 °F 29.78 in West 1.7 mph 3.5 mph 73 % 0.00 in
05:40 78.0 °F 68.2 °F 29.78 in West 3.4 mph 8.1 mph 72 % 0.00 in
05:45 78.2 °F 68.4 °F 29.78 in WSW 1.7 mph 4.0 mph 72 % 0.00 in
05:50 78.3 °F 68.1 °F 29.79 in WNW 4.2 mph 6.9 mph 71 % 0.00 in
05:55 78.3 °F 68.1 °F 29.79 in WSW 3.8 mph 6.9 mph 71 % 0.00 in
06:00 78.4 °F 68.2 °F 29.79 in SW 3.4 mph 3.5 mph 71 % 0.00 in
06:05 78.5 °F 68.3 °F 29.79 in NNE 1.6 mph 6.9 mph 71 % 0.00 in
06:10 78.5 °F 68.3 °F 29.79 in WSW 2.5 mph 6.9 mph 71 % 0.00 in
06:15 78.5 °F 67.9 °F 29.79 in NW 2.5 mph 6.0 mph 70 % 0.00 in
06:20 78.7 °F 68.1 °F 29.79 in WSW 3.1 mph 8.1 mph 70 % 0.00 in
06:26 78.8 °F 68.2 °F 29.79 in WSW 2.0 mph 9.0 mph 70 % 0.00 in
06:31 78.9 °F 68.3 °F 29.79 in WSW 2.0 mph 5.0 mph 70 % 0.00 in
06:36 79.1 °F 68.5 °F 29.79 in WSW 2.0 mph 9.0 mph 70 % 0.00 in
06:41 79.2 °F 68.6 °F 29.80 in WSW 1.0 mph 7.0 mph 70 % 0.00 in
06:46 79.4 °F 68.3 °F 29.80 in WSW 3.0 mph 10.0 mph 69 % 0.00 in
06:50 79.6 °F 68.5 °F 29.80 in WSW 3.0 mph 9.0 mph 69 % 0.00 in
06:56 79.9 °F 68.4 °F 29.80 in WSW 3.0 mph 5.0 mph 68 % 0.00 in
07:01 80.2 °F 68.2 °F 29.80 in WNW 4.1 mph 11.5 mph 67 % 0.00 in
07:10 80.7 °F 69.1 °F 29.80 in West 2.0 mph 6.0 mph 68 % 0.00 in
07:16 80.9 °F 69.4 °F 29.80 in West 2.0 mph 9.0 mph 68 % 0.00 in
07:21 81.2 °F 69.2 °F 29.80 in WNW 1.0 mph 7.0 mph 67 % 0.00 in
07:25 81.4 °F 68.9 °F 29.80 in West 3.0 mph 12.0 mph 66 % 0.00 in
07:31 81.5 °F 69.0 °F 29.81 in West 3.0 mph 7.0 mph 66 % 0.00 in
07:36 81.6 °F 68.7 °F 29.81 in West 1.0 mph 8.0 mph 65 % 0.00 in
07:41 81.7 °F 69.2 °F 29.81 in West 3.0 mph 8.0 mph 66 % 0.00 in
07:45 81.6 °F 69.2 °F 29.80 in West 5.0 mph 10.0 mph 66 % 0.00 in
07:50 81.6 °F 69.1 °F 29.81 in SSW 5.3 mph 9.0 mph 66 % 0.00 in
07:56 81.5 °F 69.0 °F 29.80 in SW 3.0 mph 9.0 mph 66 % 0.00 in
08:01 81.4 °F 68.9 °F 29.81 in WNW 3.0 mph 8.1 mph 66 % 0.00 in
08:06 81.3 °F 69.3 °F 29.81 in SSE 1.8 mph 3.5 mph 67 % 0.00 in
08:11 81.4 °F 69.4 °F 29.81 in SW 2.8 mph 11.5 mph 67 % 0.00 in
08:16 81.4 °F 69.4 °F 29.81 in WSW 4.8 mph 9.0 mph 67 % 0.00 in
08:21 81.4 °F 69.4 °F 29.81 in WSW 3.5 mph 10.4 mph 67 % 0.00 in
08:26 81.4 °F 68.9 °F 29.81 in SSW 3.3 mph 7.0 mph 66 % 0.00 in
08:31 81.5 °F 69.5 °F 29.81 in SW 4.6 mph 6.9 mph 67 % 0.00 in
08:36 81.6 °F 69.1 °F 29.82 in NW 2.0 mph 4.6 mph 66 % 0.00 in
08:41 81.7 °F 69.2 °F 29.82 in West 1.8 mph 6.9 mph 66 % 0.00 in
08:46 81.8 °F 69.3 °F 29.82 in SSW 4.0 mph 7.0 mph 66 % 0.00 in
08:52 81.9 °F 69.4 °F 29.82 in WNW 3.7 mph 9.2 mph 66 % 0.00 in
08:57 82.0 °F 69.1 °F 29.82 in SW 4.4 mph 8.1 mph 65 % 0.00 in
09:02 82.1 °F 68.7 °F 29.82 in SW 3.4 mph 5.8 mph 64 % 0.00 in
09:07 82.3 °F 68.0 °F 29.82 in WSW 5.9 mph 10.4 mph 62 % 0.00 in
09:12 82.5 °F 68.2 °F 29.82 in WNW 3.5 mph 8.1 mph 62 % 0.00 in
09:17 82.7 °F 67.4 °F 29.82 in WSW 3.0 mph 8.1 mph 60 % 0.00 in
09:22 82.9 °F 67.6 °F 29.82 in West 2.0 mph 3.5 mph 60 % 0.00 in
09:27 83.1 °F 67.8 °F 29.82 in WSW 4.9 mph 6.9 mph 60 % 0.00 in
09:32 83.3 °F 68.0 °F 29.82 in WNW 5.0 mph 10.4 mph 60 % 0.00 in
09:37 83.5 °F 67.7 °F 29.81 in WNW 3.4 mph 5.8 mph 59 % 0.00 in
09:43 83.8 °F 68.9 °F 29.82 in West 1.7 mph 3.5 mph 61 % 0.00 in
09:48 84.1 °F 68.7 °F 29.81 in West 2.3 mph 6.9 mph 60 % 0.00 in
09:53 84.4 °F 68.5 °F 29.81 in WSW 2.3 mph 6.9 mph 59 % 0.00 in
09:58 84.8 °F 68.9 °F 29.81 in SW 0.1 mph 3.5 mph 59 % 0.00 in
10:03 85.5 °F 68.5 °F 29.81 in NW 5.5 mph 10.4 mph 57 % 0.00 in
10:08 86.2 °F 69.2 °F 29.80 in NW 1.1 mph 3.5 mph 57 % 0.00 in
10:13 86.9 °F 68.8 °F 29.81 in WSW 4.7 mph 9.2 mph 55 % 0.00 in
10:18 87.7 °F 69.5 °F 29.80 in West 3.6 mph 9.0 mph 55 % 0.00 in
10:23 88.4 °F 69.6 °F 29.80 in West 2.7 mph 8.1 mph 54 % 0.00 in
10:28 89.1 °F 70.3 °F 29.81 in NW 4.2 mph 6.9 mph 54 % 0.00 in
10:34 89.9 °F 70.5 °F 29.81 in West 1.2 mph 8.1 mph 53 % 0.00 in
10:39 90.5 °F 71.6 °F 29.81 in WSW 3.1 mph 5.8 mph 54 % 0.00 in
10:44 90.9 °F 69.7 °F 29.81 in WSW 3.8 mph 9.2 mph 50 % 0.00 in
10:49 91.2 °F 70.5 °F 29.81 in SW 5.8 mph 9.2 mph 51 % 0.00 in
10:54 91.5 °F 69.6 °F 29.81 in South 2.6 mph 4.6 mph 49 % 0.00 in
10:59 91.7 °F 70.4 °F 29.81 in WNW 0.8 mph 3.5 mph 50 % 0.00 in
11:04 92.2 °F 70.3 °F 29.81 in SW 4.7 mph 7.0 mph 49 % 0.00 in
11:09 92.3 °F 69.8 °F 29.81 in WSW 3.4 mph 8.1 mph 48 % 0.00 in
11:14 92.6 °F 71.8 °F 29.81 in WSW 3.3 mph 5.0 mph 51 % 0.00 in
11:19 92.8 °F 70.2 °F 29.81 in West 5.2 mph 6.9 mph 48 % 0.00 in
11:24 93.1 °F 68.0 °F 29.81 in WSW 2.0 mph 6.9 mph 44 % 0.00 in
11:30 93.1 °F 69.3 °F 29.81 in SSW 5.5 mph 7.0 mph 46 % 0.00 in
11:35 93.4 °F 69.5 °F 29.80 in WNW 1.8 mph 5.8 mph 46 % 0.00 in
11:40 93.7 °F 68.5 °F 29.80 in WSW 5.5 mph 10.4 mph 44 % 0.00 in
11:45 93.7 °F 68.5 °F 29.81 in WSW 3.2 mph 8.1 mph 44 % 0.00 in
11:50 93.9 °F 70.6 °F 29.81 in WSW 4.9 mph 10.4 mph 47 % 0.00 in
11:55 94.2 °F 68.9 °F 29.81 in SW 3.7 mph 6.0 mph 44 % 0.00 in
12:00 94.5 °F 69.2 °F 29.81 in WNW 3.8 mph 5.8 mph 44 % 0.00 in
12:05 94.7 °F 68.7 °F 29.81 in WSW 4.3 mph 5.0 mph 43 % 0.00 in
12:10 94.8 °F 69.5 °F 29.81 in WSW 4.4 mph 8.1 mph 44 % 0.00 in
12:15 94.9 °F 68.2 °F 29.81 in WSW 7.7 mph 13.8 mph 42 % 0.00 in
12:21 95.2 °F 71.2 °F 29.81 in SW 1.9 mph 3.5 mph 46 % 0.00 in
12:26 95.5 °F 70.8 °F 29.81 in WSW 3.0 mph 9.0 mph 45 % 0.00 in
12:31 95.8 °F 68.3 °F 29.81 in WSW 3.0 mph 8.0 mph 41 % 0.00 in
12:36 96.1 °F 68.6 °F 29.80 in WSW 5.7 mph 10.0 mph 41 % 0.00 in
12:41 96.2 °F 68.0 °F 29.80 in SW 5.0 mph 9.0 mph 40 % 0.00 in
12:46 96.3 °F 69.5 °F 29.80 in SW 3.0 mph 8.0 mph 42 % 0.00 in
12:51 96.4 °F 68.9 °F 29.80 in WSW 5.0 mph 8.0 mph 41 % 0.00 in
12:56 96.7 °F 69.1 °F 29.79 in WSW 2.0 mph 12.0 mph 41 % 0.00 in
13:01 96.7 °F 67.7 °F 29.80 in SW 4.6 mph 4.6 mph 39 % 0.00 in
13:06 96.8 °F 69.2 °F 29.79 in WNW 2.5 mph 6.9 mph 41 % 0.00 in
13:11 96.8 °F 67.8 °F 29.79 in WSW 4.7 mph 11.5 mph 39 % 0.00 in
13:16 96.8 °F 67.8 °F 29.79 in WNW 3.5 mph 8.1 mph 39 % 0.00 in
13:21 97.0 °F 68.7 °F 29.79 in West 3.2 mph 6.9 mph 40 % 0.00 in
13:26 97.1 °F 67.3 °F 29.79 in West 6.1 mph 9.2 mph 38 % 0.00 in
13:31 97.2 °F 67.4 °F 29.79 in West 3.2 mph 6.9 mph 38 % 0.00 in
13:37 97.4 °F 66.8 °F 29.79 in SW 6.2 mph 9.0 mph 37 % 0.00 in
13:42 97.5 °F 67.6 °F 29.78 in WSW 5.4 mph 8.1 mph 38 % 0.00 in
13:47 97.5 °F 67.6 °F 29.78 in WNW 4.1 mph 9.2 mph 38 % 0.00 in
13:52 97.7 °F 67.8 °F 29.78 in WSW 5.4 mph 9.2 mph 38 % 0.00 in
13:57 97.6 °F 67.7 °F 29.77 in SW 3.0 mph 8.1 mph 38 % 0.00 in
14:02 97.8 °F 67.9 °F 29.77 in West 2.5 mph 5.0 mph 38 % 0.00 in
14:07 97.9 °F 68.0 °F 29.77 in WSW 4.6 mph 8.1 mph 38 % 0.00 in
14:12 97.9 °F 66.4 °F 29.77 in West 3.7 mph 10.4 mph 36 % 0.00 in
14:17 98.0 °F 67.3 °F 29.78 in SW 6.0 mph 8.1 mph 37 % 0.00 in
14:22 98.0 °F 67.3 °F 29.78 in SW 4.2 mph 13.8 mph 37 % 0.00 in
14:28 97.8 °F 67.1 °F 29.78 in SW 5.3 mph 8.1 mph 37 % 0.00 in
14:33 97.6 °F 66.1 °F 29.78 in West 5.8 mph 9.2 mph 36 % 0.00 in
14:38 97.5 °F 68.4 °F 29.77 in NW 4.2 mph 10.4 mph 39 % 0.00 in
14:43 97.5 °F 66.9 °F 29.77 in SW 3.6 mph 6.9 mph 37 % 0.00 in
14:48 97.6 °F 67.7 °F 29.77 in SSW 4.2 mph 5.8 mph 38 % 0.00 in
14:53 97.6 °F 66.9 °F 29.77 in West 7.3 mph 13.0 mph 37 % 0.00 in
14:58 97.4 °F 66.8 °F 29.77 in SSW 4.4 mph 7.0 mph 37 % 0.00 in
15:03 97.4 °F 66.8 °F 29.77 in WSW 3.6 mph 6.9 mph 37 % 0.00 in
15:08 97.6 °F 66.9 °F 29.77 in WSW 3.5 mph 5.8 mph 37 % 0.00 in
15:13 97.9 °F 64.8 °F 29.77 in WNW 4.7 mph 11.5 mph 34 % 0.00 in
15:18 98.0 °F 64.9 °F 29.77 in WNW 3.2 mph 8.1 mph 34 % 0.00 in
15:24 98.2 °F 65.9 °F 29.78 in WNW 1.6 mph 8.1 mph 35 % 0.00 in
15:29 98.4 °F 66.9 °F 29.78 in SW 2.4 mph 5.8 mph 36 % 0.00 in
15:34 98.5 °F 69.3 °F 29.77 in WNW 3.7 mph 6.9 mph 39 % 0.00 in
15:39 98.7 °F 64.6 °F 29.77 in West 5.1 mph 8.1 mph 33 % 0.00 in
15:44 98.9 °F 64.8 °F 29.77 in NNW 2.0 mph 4.6 mph 33 % 0.00 in
15:49 98.9 °F 64.8 °F 29.78 in NW 3.9 mph 8.1 mph 33 % 0.00 in
15:54 98.8 °F 63.8 °F 29.78 in WNW 3.4 mph 8.0 mph 32 % 0.00 in
15:59 98.8 °F 64.7 °F 29.77 in WNW 4.4 mph 8.1 mph 33 % 0.00 in
16:04 98.8 °F 65.6 °F 29.77 in WNW 2.7 mph 6.9 mph 34 % 0.00 in
16:09 98.8 °F 64.7 °F 29.77 in West 5.6 mph 12.0 mph 33 % 0.00 in
16:15 98.7 °F 62.8 °F 29.77 in SSW 3.8 mph 6.9 mph 31 % 0.00 in
16:20 98.5 °F 63.6 °F 29.76 in West 4.5 mph 4.6 mph 32 % 0.00 in
16:25 98.2 °F 65.0 °F 29.76 in West 1.5 mph 5.8 mph 34 % 0.00 in
16:30 98.1 °F 63.2 °F 29.76 in NW 5.1 mph 9.2 mph 32 % 0.00 in
16:35 97.9 °F 63.9 °F 29.76 in West 5.1 mph 10.4 mph 33 % 0.00 in
16:40 97.8 °F 63.8 °F 29.75 in SW 2.8 mph 4.6 mph 33 % 0.00 in
16:45 97.8 °F 62.9 °F 29.75 in NW 7.1 mph 10.4 mph 32 % 0.00 in
16:50 97.5 °F 62.7 °F 29.75 in West 3.8 mph 8.1 mph 32 % 0.00 in
16:55 97.4 °F 63.5 °F 29.75 in WSW 2.8 mph 5.0 mph 33 % 0.00 in
17:00 97.2 °F 63.3 °F 29.75 in West 1.0 mph 3.5 mph 33 % 0.00 in
17:05 97.2 °F 62.4 °F 29.75 in SW 5.1 mph 10.0 mph 32 % 0.00 in
17:11 97.1 °F 64.1 °F 29.75 in SW 1.8 mph 2.3 mph 34 % 0.00 in
17:16 97.1 °F 64.9 °F 29.75 in West 1.0 mph 7.0 mph 35 % 0.00 in
17:21 96.9 °F 63.9 °F 29.74 in WNW 1.0 mph 5.0 mph 34 % 0.00 in
17:26 96.7 °F 63.7 °F 29.74 in West 2.0 mph 7.0 mph 34 % 0.00 in
17:31 96.5 °F 63.6 °F 29.74 in WSW 3.0 mph 8.0 mph 34 % 0.00 in
17:36 96.1 °F 62.4 °F 29.74 in WSW 3.0 mph 8.0 mph 33 % 0.00 in
17:41 95.7 °F 63.7 °F 29.74 in West 1.0 mph 6.0 mph 35 % 0.00 in
17:46 95.4 °F 63.4 °F 29.74 in West 2.0 mph 6.0 mph 35 % 0.00 in
17:51 95.2 °F 62.4 °F 29.74 in West 2.0 mph 3.0 mph 34 % 0.00 in
17:56 95.0 °F 63.1 °F 29.74 in SW 2.3 mph 3.5 mph 35 % 0.00 in
18:01 94.9 °F 62.1 °F 29.74 in SSW 3.8 mph 4.6 mph 34 % 0.00 in
18:06 94.7 °F 62.8 °F 29.74 in WNW 2.7 mph 4.6 mph 35 % 0.00 in
18:11 94.5 °F 62.6 °F 29.74 in West 2.0 mph 4.0 mph 35 % 0.00 in
18:16 94.3 °F 63.2 °F 29.74 in WNW 1.9 mph 4.6 mph 36 % 0.00 in
18:21 93.9 °F 62.1 °F 29.75 in West 2.4 mph 5.0 mph 35 % 0.00 in
18:26 93.6 °F 63.4 °F 29.75 in WNW 1.5 mph 6.0 mph 37 % 0.00 in
18:31 93.4 °F 62.5 °F 29.75 in NW 1.2 mph 4.6 mph 36 % 0.00 in
18:36 93.1 °F 63.7 °F 29.75 in NW 1.9 mph 3.5 mph 38 % 0.00 in
18:41 92.9 °F 62.8 °F 29.75 in WNW 1.8 mph 2.3 mph 37 % 0.00 in
18:47 92.8 °F 62.7 °F 29.75 in SSW 0.4 mph 1.2 mph 37 % 0.00 in
18:52 92.6 °F 62.5 °F 29.75 in West 0.3 mph 9.2 mph 37 % 0.00 in
18:57 92.5 °F 62.4 °F 29.75 in NW 3.3 mph 6.9 mph 37 % 0.00 in
19:02 92.2 °F 62.9 °F 29.75 in WNW 1.0 mph 5.0 mph 38 % 0.00 in
19:12 91.4 °F 62.2 °F 29.75 in WNW 2.9 mph 6.0 mph 38 % 0.00 in
19:17 91.1 °F 62.7 °F 29.76 in West 1.8 mph 5.0 mph 39 % 0.00 in
19:22 91.0 °F 62.6 °F 29.76 in West 1.4 mph 3.5 mph 39 % 0.00 in
19:27 90.8 °F 62.4 °F 29.76 in WSW 0.7 mph 2.3 mph 39 % 0.00 in
19:32 90.5 °F 61.4 °F 29.76 in West 2.7 mph 4.6 mph 38 % 0.00 in
19:38 90.3 °F 61.2 °F 29.77 in NE 1.4 mph 7.0 mph 38 % 0.00 in
19:43 89.8 °F 65.0 °F 29.77 in NNE 0.3 mph 2.3 mph 44 % 0.00 in
19:48 89.3 °F 63.2 °F 29.78 in WNW 0.6 mph 4.6 mph 42 % 0.00 in
19:53 89.0 °F 62.9 °F 29.78 in WNW 1.8 mph 5.8 mph 42 % 0.00 in
19:58 88.6 °F 62.6 °F 29.78 in West 1.6 mph 3.5 mph 42 % 0.00 in
20:03 88.3 °F 63.0 °F 29.78 in West 0.3 mph 2.3 mph 43 % 0.00 in
20:08 88.1 °F 62.8 °F 29.78 in NE 0.4 mph 3.5 mph 43 % 0.00 in
20:13 87.8 °F 62.5 °F 29.79 in West 0.9 mph 2.0 mph 43 % 0.00 in
20:18 87.4 °F 63.5 °F 29.79 in North 0.6 mph 2.3 mph 45 % 0.00 in
20:23 86.9 °F 62.4 °F 29.79 in North 3.2 mph 4.0 mph 44 % 0.00 in
20:29 86.5 °F 62.0 °F 29.79 in NNE 2.6 mph 4.6 mph 44 % 0.00 in
20:34 86.1 °F 62.9 °F 29.80 in North 2.4 mph 5.8 mph 46 % 0.00 in
20:39 85.7 °F 62.5 °F 29.80 in North 1.1 mph 2.3 mph 46 % 0.00 in
20:44 85.5 °F 62.4 °F 29.80 in NNW 5.0 mph 7.0 mph 46 % 0.00 in
20:49 85.3 °F 63.4 °F 29.80 in NE 3.4 mph 5.8 mph 48 % 0.00 in
20:54 85.1 °F 63.8 °F 29.81 in WNW 3.8 mph 8.1 mph 49 % 0.00 in
20:59 84.9 °F 63.6 °F 29.81 in North 2.1 mph 4.6 mph 49 % 0.00 in
21:04 84.7 °F 64.6 °F 29.81 in NE 3.2 mph 6.9 mph 51 % 0.00 in
21:09 84.5 °F 64.9 °F 29.81 in North 1.7 mph 5.0 mph 52 % 0.00 in
21:14 84.2 °F 64.1 °F 29.81 in North 0.3 mph 3.5 mph 51 % 0.00 in
21:20 83.8 °F 64.8 °F 29.81 in NNE 0.3 mph 4.6 mph 53 % 0.00 in
21:25 83.4 °F 64.5 °F 29.81 in NW 3.2 mph 5.8 mph 53 % 0.00 in
21:30 83.1 °F 64.2 °F 29.81 in NW 0.4 mph 2.3 mph 53 % 0.00 in
21:35 82.9 °F 62.9 °F 29.81 in NW 1.2 mph 3.5 mph 51 % 0.00 in
21:40 82.8 °F 62.8 °F 29.81 in NNW 0.5 mph 2.3 mph 51 % 0.00 in
21:45 82.8 °F 62.8 °F 29.81 in NNW 1.6 mph 5.0 mph 51 % 0.00 in
21:50 82.7 °F 62.7 °F 29.81 in North 1.0 mph 4.0 mph 51 % 0.00 in
21:55 82.7 °F 62.2 °F 29.81 in NW 1.0 mph 3.5 mph 50 % 0.00 in
22:00 82.7 °F 62.7 °F 29.81 in NW 1.2 mph 4.0 mph 51 % 0.00 in
22:05 82.7 °F 62.7 °F 29.81 in NW 0.4 mph 2.3 mph 51 % 0.00 in
22:11 82.7 °F 63.2 °F 29.81 in NNW 1.0 mph 3.0 mph 52 % 0.00 in
22:16 82.6 °F 63.7 °F 29.82 in Calm   3.0 mph 53 % 0.00 in
22:21 82.5 °F 64.7 °F 29.82 in North 1.0 mph 4.0 mph 55 % 0.00 in
22:26 82.3 °F 65.0 °F 29.82 in NNW 1.0 mph 4.0 mph 56 % 0.00 in
22:31 82.0 °F 64.2 °F 29.82 in NNW 1.0 mph 4.0 mph 55 % 0.00 in
22:36 81.8 °F 64.6 °F 29.83 in NNW 1.0 mph 3.0 mph 56 % 0.00 in
22:41 81.6 °F 64.4 °F 29.83 in North 1.0 mph 5.0 mph 56 % 0.00 in
22:46 81.5 °F 64.8 °F 29.83 in NW 1.0 mph 4.0 mph 57 % 0.00 in
22:51 81.3 °F 65.1 °F 29.84 in Calm   3.0 mph 58 % 0.00 in
22:56 81.1 °F 64.9 °F 29.84 in WNW 1.0 mph 6.0 mph 58 % 0.00 in
23:01 80.8 °F 64.6 °F 29.84 in Calm   2.3 mph 58 % 0.00 in
23:06 80.6 °F 64.9 °F 29.84 in NNE 0.3 mph 2.3 mph 59 % 0.00 in
23:11 80.4 °F 65.2 °F 29.84 in NNW 0.6 mph 2.3 mph 60 % 0.00 in
23:16 80.1 °F 65.9 °F 29.84 in North 1.2 mph 3.5 mph 62 % 0.00 in
23:21 79.7 °F 65.5 °F 29.85 in North 0.1 mph 1.2 mph 62 % 0.00 in
23:26 79.5 °F 65.3 °F 29.85 in North 1.9 mph 5.0 mph 62 % 0.00 in
23:31 79.2 °F 65.1 °F 29.85 in NNE 1.1 mph 5.8 mph 62 % 0.00 in
23:36 78.9 °F 64.8 °F 29.85 in ENE 1.1 mph 3.0 mph 62 % 0.00 in
23:41 78.7 °F 64.6 °F 29.85 in North 1.2 mph 2.0 mph 62 % 0.00 in
23:47 78.6 °F 64.9 °F 29.86 in Calm   3.5 mph 63 % 0.00 in
23:52 78.4 °F 64.8 °F 29.86 in East 0.3 mph 2.3 mph 63 % 0.00 in
23:57 78.3 °F 64.7 °F 29.86 in Calm     63 % 0.00 in
Crab Meadow Weather
Compliments of Weather Underground - 3 mb

Script developed by  Jim McMurry - jmcmurry@mwt.net Adapted for the template by  Wim van der Kuil - Leuven-Template.eu

Astronomy: The light of the Sun takes 8 minutes to reach Earth.